Terminal Aerodrome Forecast
Issued by NWS Charleston, WV

Current Version | Previous Version | Text Only | Print | Product List | Glossary Off
Versions: 1 2 3 4 5 6 7 8 9 10 11 12 13 14 15 16 17 18 19 20 21 22 23 24 25 26 27 28 29 30

000
FTUS41 KRLX 191200 AAA
TAFBKW
TAF AMD
KBKW 191231Z 1913/2012 32008KT P6SM SCT009 OVC025
     FM191400 31007KT P6SM SCT025
     FM191900 30007KT P6SM FEW100
     FM192300 00000KT P6SM SKC
     FM200800 17003KT P6SM FEW110=

USA.gov is the U.S. government's official web portal to all federal, state and local government web resources and services.